FDX2577 KLGB-KABQ

Flight info

Callsign FDX2577
Flight time N/A
Altitude 35000
Route FRITR3 AVRRY LANCY HIDAT KA27O NABOB J74 SJN LAVAN3
Aircraft B721/M-SDFGHRWY/C

Departure

Time 2026-05-04 01:21
Airport Long Beach International Airport (KLGB)

Arrival

Time N/A
Airport Albuquerque International Sunport (KABQ)
Time Latitude Longitude Altitude Speed Heading
2026-05-04 00:56 33.81195 -118.14130 48 ft 0 kts 45°
2026-05-04 01:13 33.81185 -118.14141 49 ft 3 kts 45°
2026-05-04 01:13 33.81171 -118.14158 44 ft 2 kts 44°
2026-05-04 01:13 33.81161 -118.14172 44 ft 3 kts 57°
2026-05-04 01:14 33.81158 -118.14192 44 ft 3 kts 99°
2026-05-04 01:14 33.81168 -118.14210 45 ft 3 kts 132°
2026-05-04 01:14 33.81175 -118.14218 45 ft 0 kts 135°
2026-05-04 01:17 33.81163 -118.14205 44 ft 8 kts 136°
2026-05-04 01:17 33.81109 -118.14140 49 ft 14 kts 135°
2026-05-04 01:17 33.81026 -118.14040 49 ft 19 kts 134°
2026-05-04 01:17 33.80922 -118.13914 49 ft 23 kts 135°
2026-05-04 01:18 33.80838 -118.13811 49 ft 13 kts 134°
2026-05-04 01:18 33.80776 -118.13752 49 ft 0 kts 183°
2026-05-04 01:20 33.80775 -118.13752 49 ft 2 kts 187°
2026-05-04 01:20 33.80732 -118.13779 46 ft 10 kts 221°
2026-05-04 01:20 33.80724 -118.13858 45 ft 13 kts 313°
2026-05-04 01:21 33.80924 -118.14101 49 ft 81 kts 315°
2026-05-04 01:21 33.81504 -118.14796 207 ft 142 kts 315°
2026-05-04 01:21 33.82250 -118.15629 1142 ft 146 kts 312°
2026-05-04 01:21 33.82966 -118.16491 2088 ft 150 kts 300°
2026-05-04 01:22 33.83125 -118.17734 2746 ft 166 kts 253°
2026-05-04 01:22 33.82430 -118.18764 2888 ft 156 kts 207°
2026-05-04 01:22 33.81370 -118.19011 2985 ft 164 kts 192°
2026-05-04 01:22 33.80173 -118.19197 3603 ft 181 kts 189°
2026-05-04 01:23 33.78878 -118.19412 4161 ft 200 kts 191°
2026-05-04 01:23 33.77421 -118.19687 4685 ft 229 kts 192°
2026-05-04 01:23 33.75679 -118.20024 5243 ft 278 kts 192°
2026-05-04 01:23 33.73607 -118.20429 5968 ft 317 kts 191°
2026-05-04 01:24 33.71356 -118.20881 6962 ft 347 kts 191°
2026-05-04 01:24 33.68907 -118.21381 7887 ft 342 kts 192°
2026-05-04 01:24 33.66794 -118.22070 9371 ft 290 kts 200°
2026-05-04 01:24 33.64954 -118.22515 10770 ft 263 kts 181°
2026-05-04 01:25 33.63205 -118.21788 12003 ft 284 kts 152°
2026-05-04 01:25 33.61808 -118.19914 12649 ft 322 kts 126°
2026-05-04 01:25 33.61039 -118.18335 13099 ft 340 kts 122°
2026-05-04 01:25 33.60245 -118.15536 13780 ft 373 kts 100°
2026-05-04 01:26 33.60450 -118.12338 14509 ft 398 kts 79°
2026-05-04 01:26 33.61442 -118.09160 15247 ft 417 kts 63°
2026-05-04 01:26 33.62811 -118.06016 15990 ft 433 kts 63°
2026-05-04 01:26 33.63949 -118.02617 16726 ft 445 kts 77°
2026-05-04 01:27 33.64419 -117.98907 17498 ft 451 kts 86°
2026-05-04 01:27 33.64642 -117.95128 17706 ft 461 kts 92°
2026-05-04 01:27 33.64582 -117.91225 17718 ft 472 kts 96°
2026-05-04 01:27 33.64394 -117.87303 18426 ft 468 kts 96°
2026-05-04 01:28 33.64330 -117.83393 19339 ft 468 kts 92°
2026-05-04 01:28 33.64427 -117.79527 20482 ft 460 kts 91°
2026-05-04 01:28 33.64447 -117.75778 21631 ft 452 kts 95°
2026-05-04 01:28 33.64309 -117.71971 22653 ft 449 kts 97°
2026-05-04 01:29 33.64185 -117.68268 23517 ft 452 kts 95°
2026-05-04 01:29 33.64163 -117.64497 24318 ft 451 kts 94°
2026-05-04 01:29 33.64149 -117.60732 25006 ft 453 kts 95°
2026-05-04 01:29 33.64068 -117.56922 25546 ft 459 kts 96°
2026-05-04 01:30 33.63968 -117.53055 26070 ft 467 kts 95°
2026-05-04 01:30 33.63906 -117.49130 26600 ft 475 kts 94°
2026-05-04 01:30 33.63858 -117.45142 27113 ft 481 kts 95°
2026-05-04 01:30 33.63788 -117.41109 27667 ft 485 kts 95°
2026-05-04 01:31 33.63699 -117.37039 28241 ft 490 kts 95°
2026-05-04 01:31 33.63618 -117.32933 28803 ft 494 kts 95°
2026-05-04 01:31 33.63550 -117.28799 29393 ft 497 kts 95°
2026-05-04 01:31 33.63475 -117.24633 29993 ft 501 kts 95°
2026-05-04 01:32 33.63385 -117.20446 30453 ft 504 kts 95°
2026-05-04 01:32 33.63281 -117.16231 30915 ft 507 kts 95°
2026-05-04 01:32 33.63175 -117.11942 30980 ft 523 kts 95°
2026-05-04 01:32 33.63073 -117.07517 30990 ft 538 kts 95°
2026-05-04 01:33 33.62969 -117.02961 30999 ft 553 kts 95°
2026-05-04 01:33 33.62855 -116.98290 30990 ft 567 kts 95°
2026-05-04 01:33 33.62737 -116.93604 31436 ft 568 kts 95°
2026-05-04 01:33 33.62620 -116.88846 31948 ft 569 kts 95°
2026-05-04 01:34 33.62502 -116.84096 32407 ft 569 kts 95°
2026-05-04 01:34 33.62377 -116.79348 32918 ft 569 kts 95°
2026-05-04 01:34 33.62252 -116.74600 33351 ft 570 kts 95°
2026-05-04 01:34 33.62123 -116.69825 33727 ft 574 kts 96°
2026-05-04 01:35 33.61991 -116.65026 34089 ft 576 kts 95°
2026-05-04 01:35 33.61863 -116.60257 34382 ft 579 kts 96°
2026-05-04 01:35 33.61732 -116.55425 34775 ft 581 kts 95°
2026-05-04 01:36 33.61449 -116.45629 34835 ft 591 kts 95°
2026-05-04 01:36 33.61167 -116.35760 34811 ft 592 kts 96°